Volver al catálogo

INTELSAT 805

ActivoComunicacionesGEO
NORAD 25371·PAYLOAD· XX

Lanzado Jun 18, 1998 desde Cape Canaveral Space Force Station

Loading…

TLE

ActualizadoSource: Space-Track

Época: Sep 11, 2026, 02:05 UTC

1 25371U 98037A   26254.08714347  .00000002  00000-0  00000-0 0  9990
2 25371   8.0415  65.0102 0025036 176.5544 163.1585  0.99470629103212

Sigue INTELSAT 805 en tiempo real con AllMySat

Download on the App Store